Location: Croissy-Beaubourg
(48.8283°N, 2.6696°E)
Time: 03:33:34
(UTC+00:00)

Cosmos 1300 - Pass Details

Date: 16 October 2021
Orbit: 509 x 512 km, 82.5° (Epoch: 30 November)

Event Time Altitude Azimuth Distance (km) Brightness Sun altitude
Rises 18:30:17 0° 168° (SSE) 2,614 6.1 -16.0°
Reaches altitude 10° 18:32:30 10° 160° (SSE) 1,733 5.1 -16.4°
Enters shadow 18:33:46 19° 150° (SSE) 1,275 4.3 -16.6°
Exits shadow 18:38:04 21° 38° (NE) 1,211 4.3 -17.3°
Drops below altitude 10° 18:39:34 10° 25° (NNE) 1,747 5.2 -17.5°
Sets 18:41:48 0° 17° (NNE) 2,639 6.2 -17.9°
